EN

Hourly Weather Luczaje

Today, 28 November, Saturday

Time Temperature Precipitation Wind Pressure Humidity
00:00 +1°C° 0.1 mm 4 mps 747 mmHg 84%
01:00 +1°C° 0.1 mm 4 mps 747 mmHg 87%
02:00 0°C° 0 mm 4 mps 747 mmHg 89%
03:00 0°C° 0.4 mm 4 mps 747 mmHg 91%
04:00 +1°C° 0.4 mm 3 mps 747 mmHg 93%
05:00 0°C° 0.4 mm 3 mps 747 mmHg 95%
06:00 0°C° 0.1 mm 3 mps 748 mmHg 92%
07:00 0°C° 0.1 mm 3 mps 748 mmHg 88%
08:00 -1°C° 0 mm 3 mps 748 mmHg 87%
09:00 -1°C° 0 mm 3 mps 749 mmHg 84%
10:00 -1°C° 0 mm 3 mps 749 mmHg 81%
11:00 -1°C° 0 mm 3 mps 749 mmHg 78%
12:00 -1°C° 0 mm 4 mps 749 mmHg 78%
13:00 -1°C° 0 mm 4 mps 749 mmHg 77%
14:00 -1°C° 0 mm 4 mps 749 mmHg 77%
15:00 -1°C° 0.1 mm 3 mps 749 mmHg 82%
16:00 -1°C° 0.1 mm 3 mps 749 mmHg 88%
17:00 -1°C° 0.1 mm 3 mps 749 mmHg 93%
18:00 -1°C° 0.2 mm 3 mps 749 mmHg 94%
19:00 -1°C° 0.2 mm 3 mps 749 mmHg 95%
20:00 -1°C° 0.2 mm 3 mps 749 mmHg 96%
21:00 -1°C° 0.2 mm 3 mps 749 mmHg 96%
22:00 -1°C° 0.2 mm 3 mps 749 mmHg 97%
23:00 -1°C° 0.2 mm 3 mps 749 mmHg 97%

Tomorrow, 29 November, Sunday

Time Temperature Precipitation Wind Pressure Humidity
00:00 -1°C° 0.2 mm 3 mps 749 mmHg 97%
01:00 -1°C° 0.2 mm 3 mps 749 mmHg 96%
02:00 -1°C° 0.2 mm 3 mps 749 mmHg 96%
03:00 -1°C° 0 mm 3 mps 749 mmHg 94%
04:00 -1°C° 0 mm 3 mps 749 mmHg 92%
05:00 -2°C° 0 mm 3 mps 749 mmHg 89%
06:00 -2°C° 0 mm 3 mps 749 mmHg 89%
07:00 -2°C° 0 mm 3 mps 749 mmHg 89%
08:00 -3°C° 0 mm 2 mps 749 mmHg 88%
09:00 -2°C° 0 mm 3 mps 749 mmHg 88%
10:00 -2°C° 0 mm 3 mps 749 mmHg 89%
11:00 -1°C° 0 mm 3 mps 750 mmHg 89%
12:00 -1°C° 0 mm 3 mps 750 mmHg 88%
13:00 0°C° 0 mm 3 mps 750 mmHg 87%
14:00 0°C° 0 mm 3 mps 750 mmHg 86%
15:00 +1°C° 0 mm 2 mps 749 mmHg 88%
16:00 -1°C° 0 mm 2 mps 749 mmHg 90%
17:00 -1°C° 0 mm 2 mps 749 mmHg 92%
18:00 -1°C° 0 mm 2 mps 749 mmHg 93%
19:00 -1°C° 0 mm 2 mps 750 mmHg 95%
20:00 -2°C° 0 mm 2 mps 750 mmHg 97%
21:00 -2°C° 0.1 mm 2 mps 750 mmHg 97%
22:00 -2°C° 0.1 mm 2 mps 750 mmHg 97%
23:00 -2°C° 0.1 mm 2 mps 750 mmHg 97%

Day after tomorrow, 30 November, Monday

Time Temperature Precipitation Wind Pressure Humidity
00:00 -2°C° 0.1 mm 2 mps 750 mmHg 97%
01:00 -2°C° 0.1 mm 2 mps 750 mmHg 97%
02:00 -2°C° 0.1 mm 2 mps 750 mmHg 97%
03:00 -2°C° 0.1 mm 2 mps 750 mmHg 97%
04:00 -2°C° 0.1 mm 2 mps 750 mmHg 96%
05:00 -2°C° 0.1 mm 2 mps 751 mmHg 96%
06:00 -3°C° 0.1 mm 2 mps 751 mmHg 97%
07:00 -3°C° 0.1 mm 2 mps 751 mmHg 97%
08:00 -3°C° 0.1 mm 2 mps 751 mmHg 97%
09:00 -2°C° 0.1 mm 2 mps 752 mmHg 95%
10:00 -2°C° 0.1 mm 2 mps 752 mmHg 93%
11:00 -2°C° 0.1 mm 2 mps 752 mmHg 91%
12:00 -2°C° 0 mm 2 mps 752 mmHg 89%
13:00 -1°C° 0 mm 2 mps 752 mmHg 87%
14:00 -1°C° 0 mm 2 mps 752 mmHg 84%
15:00 -2°C° 0 mm 2 mps 753 mmHg 86%
16:00 -2°C° 0 mm 2 mps 753 mmHg 88%
17:00 -3°C° 0 mm 2 mps 753 mmHg 89%
18:00 -3°C° 0 mm 2 mps 753 mmHg 89%
19:00 -3°C° 0 mm 2 mps 753 mmHg 89%
20:00 -3°C° 0 mm 2 mps 753 mmHg 89%
21:00 -4°C° 0 mm 3 mps 753 mmHg 89%
22:00 -4°C° 0 mm 3 mps 753 mmHg 88%
23:00 -4°C° 0 mm 3 mps 753 mmHg 87%

1 December, Tuesday

Time Temperature Precipitation Wind Pressure Humidity
00:00 -4°C° 0 mm 3 mps 753 mmHg 87%
01:00 -4°C° 0 mm 3 mps 753 mmHg 87%
02:00 -2°C° 0 mm 3 mps 753 mmHg 88%
03:00 -2°C° 0 mm 3 mps 753 mmHg 89%
04:00 -2°C° 0 mm 3 mps 753 mmHg 90%
05:00 -4°C° 0 mm 3 mps 753 mmHg 91%
06:00 -4°C° 0 mm 3 mps 753 mmHg 91%
07:00 -4°C° 0 mm 3 mps 754 mmHg 91%
08:00 -4°C° 0 mm 3 mps 754 mmHg 92%
09:00 -2°C° 0 mm 3 mps 754 mmHg 89%
10:00 -2°C° 0 mm 3 mps 754 mmHg 87%
11:00 -2°C° 0 mm 3 mps 754 mmHg 85%
12:00 -2°C° 0 mm 3 mps 754 mmHg 83%
13:00 -1°C° 0 mm 3 mps 754 mmHg 80%
14:00 -1°C° 0 mm 3 mps 754 mmHg 78%
15:00 -2°C° 0 mm 3 mps 754 mmHg 81%
16:00 -4°C° 0 mm 3 mps 754 mmHg 84%
17:00 -4°C° 0 mm 3 mps 753 mmHg 88%
18:00 -4°C° 0 mm 3 mps 754 mmHg 88%
19:00 -5°C° 0 mm 3 mps 754 mmHg 89%
20:00 -5°C° 0 mm 3 mps 754 mmHg 89%
21:00 -5°C° 0 mm 3 mps 754 mmHg 88%
22:00 -5°C° 0 mm 3 mps 754 mmHg 88%
23:00 -5°C° 0 mm 3 mps 754 mmHg 87%

2 December, Wednesday

Time Temperature Precipitation Wind Pressure Humidity
00:00 -5°C° 0 mm 3 mps 754 mmHg 88%
01:00 -5°C° 0 mm 3 mps 754 mmHg 88%
02:00 -5°C° 0 mm 3 mps 754 mmHg 89%
03:00 -5°C° 0 mm 3 mps 754 mmHg 89%
04:00 -6°C° 0 mm 3 mps 754 mmHg 89%
05:00 -6°C° 0 mm 3 mps 754 mmHg 89%
06:00 -6°C° 0 mm 3 mps 754 mmHg 89%
07:00 -6°C° 0 mm 3 mps 754 mmHg 89%
08:00 -6°C° 0 mm 3 mps 754 mmHg 88%
09:00 -5°C° 0 mm 3 mps 754 mmHg 85%
10:00 -5°C° 0 mm 3 mps 754 mmHg 82%
11:00 -4°C° 0 mm 3 mps 754 mmHg 79%
12:00 -4°C° 0 mm 3 mps 754 mmHg 77%
13:00 -2°C° 0 mm 3 mps 754 mmHg 76%
14:00 -2°C° 0 mm 3 mps 753 mmHg 75%
15:00 -4°C° 0 mm 3 mps 753 mmHg 78%
16:00 -4°C° 0 mm 3 mps 753 mmHg 82%
17:00 -4°C° 0 mm 2 mps 753 mmHg 86%
18:00 -5°C° 0 mm 3 mps 753 mmHg 86%
19:00 -5°C° 0 mm 3 mps 753 mmHg 85%
20:00 -5°C° 0 mm 3 mps 753 mmHg 85%
21:00 -5°C° 0 mm 3 mps 753 mmHg 85%
22:00 -5°C° 0 mm 3 mps 753 mmHg 85%
23:00 -5°C° 0 mm 3 mps 753 mmHg 86%

3 December, Thursday

Time Temperature Precipitation Wind Pressure Humidity
00:00 -5°C° 0 mm 3 mps 753 mmHg 87%
01:00 -5°C° 0 mm 3 mps 752 mmHg 88%
02:00 -5°C° 0 mm 3 mps 752 mmHg 89%
03:00 -6°C° 0 mm 3 mps 752 mmHg 90%
04:00 -6°C° 0 mm 3 mps 752 mmHg 91%
05:00 -6°C° 0 mm 3 mps 752 mmHg 92%
06:00 -6°C° 0 mm 3 mps 752 mmHg 93%
07:00 -6°C° 0 mm 3 mps 752 mmHg 93%
08:00 -6°C° 0 mm 3 mps 751 mmHg 94%
09:00 -6°C° 0 mm 3 mps 751 mmHg 93%
10:00 -5°C° 0 mm 4 mps 751 mmHg 91%
11:00 -5°C° 0 mm 4 mps 751 mmHg 90%
12:00 -5°C° 0 mm 4 mps 751 mmHg 88%
13:00 -4°C° 0 mm 4 mps 751 mmHg 87%
14:00 -4°C° 0 mm 4 mps 750 mmHg 85%
15:00 -4°C° 0 mm 3 mps 750 mmHg 85%
16:00 -5°C° 0 mm 3 mps 750 mmHg 86%
17:00 -5°C° 0 mm 3 mps 750 mmHg 87%
18:00 -5°C° 0 mm 3 mps 750 mmHg 87%
19:00 -5°C° 0 mm 3 mps 750 mmHg 88%
20:00 -5°C° 0 mm 3 mps 749 mmHg 89%
21:00 -5°C° 0 mm 3 mps 749 mmHg 89%
22:00 -5°C° 0 mm 3 mps 749 mmHg 90%
23:00 -5°C° 0 mm 3 mps 749 mmHg 91%
Show more